Regional Weather Roundup
Issued by NWS Charleston, SC

Current Version | Previous Version | Graphics & Text | Print | Product List | Glossary On
Versions: 1 2 3 4 5 6 7 8 9 10 11 12 13 14 15 16 17 18 19 20 21 22 23 24 25 26 27 28 29 30 31 32 33 34 35 36 37 38 39 40 41 42 43 44 45 46 47 48 49 50
263 ASUS42 KCHS 302213 RWRCHS REGIONAL WEATHER ROUNDUP NATIONAL WEATHER SERVICE CHARLESTON SC 600 PM EDT FRI SEP 30 2016 NOTE: "FAIR" INDICATES FEW OR NO CLOUDS BELOW 12,000 FEET WITH NO SIGNIFICANT WEATHER AND/OR OBSTRUCTIONS TO VISIBILITY. NOT ALL STATIONS ARE QUALITY CONTROLLED. USE DATA WITH CAUTION... ESPECIALLY DEWPOINT OBSERVATIONS. SCZ027-030-031-034>040-042>050-302300- ...SOUTHEAST SOUTH CAROLINA... CITY SKY/WX TMP DP RH WIND PRES REMARKS N CHARLESTON MOSUNNY 84 62 47 S10 29.96S WATERFRONT PRK N/A 83 68 60 S7 29.95R MOUNT PLEASANT FAIR 82 64 54 S7 29.96S JOHNS ISLAND FAIR 82 68 61 S7 29.97R PINOPOLIS N/A 84 63 48 SW7 29.89S MONCKS CORNER FAIR 81 59 47 SW7 29.95F SUMMERVILLE FAIR 82 64 54 CALM 29.97S BEAUFORT MCAS SUNNY 84 57 39 SW10 29.97R BEAUFORT ARPT FAIR 81 63 54 S5 29.96S HILTON HEAD IS SUNNY 84 66 54 S7 29.97S WALTERBORO CLEAR 82 55 39 NW6 29.98S ALLENDALE FAIR 81 52 36 CALM 29.97S ...SOUTHERN MIDLANDS AND PEE DEE... CITY SKY/WX TMP DP RH WIND PRES REMARKS GEORGETOWN FAIR 81 64 57 SW8 29.96F KINGSTREE FAIR 82 61 47 S5 29.96R ORANGEBURG SUNNY 81 54 39 SW9 29.98R BARNWELL NOT AVBL AIKEN FAIR 77 46 33 S7 30.02R MANNING FAIR 81 57 44 SW8 29.97R COLUMBIA MOSUNNY 82 46 28 SW9 29.96R SUMTER SUNNY 82 55 39 SW10 29.95R FLORENCE SUNNY 84 58 40 SW9 29.96R MYRTLE BEACH NOT AVBL N MYRTLE BEACH MOSUNNY 83 71 67 S14 29.95F $$ GAZ063-065-086>088-099>101-113>116-118-119-134>141-150-302300- ...SOUTHEAST GEORGIA... CITY SKY/WX TMP DP RH WIND PRES REMARKS SAVANNAH ARPT MOSUNNY 84 54 35 W9 29.97R HUNTER AAF SUNNY 85 66 52 W9 29.94R FORT STEWART SUNNY 85 52 31 W8 29.94S STATESBORO SUNNY 81 55 41 W8 29.98S SYLVANIA NOT AVBL CLAXTON FAIR 82 53 36 SW3 29.97S ...CSRA...CENTRAL AND FAR SOUTHEAST GEORGIA... CITY SKY/WX TMP DP RH WIND PRES REMARKS THOMSON SUNNY 81 50 33 W6 30.03R AUGUSTA-BUSH SUNNY 80 47 31 S7 29.97R AUGUSTA-DANIEL SUNNY 81 45 28 SW7 29.98S SWAINSBORO FAIR 81 46 30 W6 30.00R VIDALIA SUNNY 81 55 41 NW3 29.99S EASTMAN FAIR 81 24 12 W5 30.02S HAZLEHURST FAIR 82 51 33 E3 29.99R ALMA SUNNY 82 49 31 W7 29.99R WAYCROSS SUNNY 87 55 33 NW7 29.98R JESUP FAIR 86 59 39 W6 29.97S BAXLEY FAIR 82 54 36 W6 29.98S BRUNSWICK SUNNY 86 63 45 SW7 29.98R SAINT SIMONS SUNNY 83 65 54 SE8 29.97R $$ SCZ027-028-034-036>038-045-046-048>050-GAZ119-141-302300- ...LAKE AND SUPPLEMENTAL COASTAL OBSERVATIONS... STATION/POSITION TIME TEMP WIND PRES WAVE SWELL AIR SEA DIR/SP/G HT/PER HT/PER/DIR (UTC) (F) (DEG/KT/KT) (MB) (FT/S) (FT/S/D) WINYAH BAY NOT AVBL LAKE MURRAY 2120 80 240/ 9/ 11 1013.9 ACE BASIN NERRS 2045 85 CALM 1015.0 FORT PULASKI 2142 82 82 140/ 7/ 10 1015.1R SAPELO ISLAND 2100 88 220/ 2 1015.0 $$ ANZ835-935-AMZ111-154-330-350-352-354-370-450-454-472-302300- ...C-MAN AND BUOY OBSERVATIONS... STATION/POSITION TIME TEMP WIND PRES WAVE SWELL AIR SEA DIR/SP/G HT/PER HT/PER/DIR (UTC) (F) (DEG/KT/KT) (MB) (FT/S) (FT/S/D) BUOY 41004 2150 82 83 210/ 10/ 12 1014.2F 3/ 5 2/190/ 5 BUOY 41008 2150 80 83 140/ 6/ 8 1014.9F 2/10 2/ 60/10 FOLLY BEACH CMAN 2200 81 200/ 7/ 9 1015.1S CAPERS NEARSHORE 2108 82 82 200/ 12/ 14 1014.5F FRIPP NEARSHORE 2108 81 82 170/ 6/ 10 1014.8F STATION/POSITION TIME TEMP WIND PRES WAVE SWELL AIR SEA DIR/SP/G HT/PER HT/PER/DIR (UTC) (F) (DEG/KT/KT) (MB) (FT/S) (FT/S/D) 5E ST. MARYS GA 2101 84 N/A 2/ 9 FRYING PAN BUOY 2150 81 82 190/ 14/ 16 1015.0S 5/ 6 2/ 80/ 9 BUOY 41025 2150 76 77 180/ 2/ 6 1017.5R 5/10 5/ 40/10 CAPE LOOKOUT NC 2200 76 110/ 14/ 16 1016.3R BUOY 41002 2150 82 83 160/ 12/ 14 1018.0F 4/ 9 3/360/ 9 BUOY 41010 NOT AVBL ST AUGUSTINE FL 2200 81 84 130/ 8/ 9 1015.5S $$

USA.gov is the U.S. government's official web portal to all federal, state and local government web resources and services.